This demonstration page uses our WeatherBlox Daily Observations layout. Learn more.

Left ArrowRight Arrow

Hourly Observations for April 2, 2018

Temp ( °F °C ) Dew Point ( °F °C ) Humidity (%) Winds ( mph kmh ) Pressure ( in mb ) Visibility ( mi km ) Precip ( " mm )
12:53 am 00:53 Clear 58 14.4 44 6.7 60 60 Calm 29.83 1010 10 16 0.00 0.00
1:53 am 01:53 Clear 55 12.8 46 7.8 72 72 Calm 29.82 1010 10 16 0.00 0.00
2:53 am 02:53 Clear 54 12.2 46 7.8 75 75 N 5 7 29.82 1010 10 16 0.00 0.00
3:53 am 03:53 Clear 54 12.2 45 7.2 72 72 N 6 9 29.82 1010 10 16 0.00 0.00
4:53 am 04:53 Clear 53 11.7 46 7.8 77 77 Calm 29.82 1010 10 16 0.00 0.00
5:53 am 05:53 Clear 53 11.7 46 7.8 77 77 Calm 29.82 1010 10 16 0.00 0.00
6:53 am 06:53 Sunny 53 11.7 46 7.8 77 77 Calm 29.83 1010 10 16 0.00 0.00
7:53 am 07:53 Mostly Sunny 58 14.4 39 3.9 50 50 WNW 8 13 29.85 1011 10 16 0.00 0.00
8:53 am 08:53 Sunny 61 16.1 45 7.2 56 56 VRB 5 7 29.87 1012 10 16 0.00 0.00
9:53 am 09:53 Sunny 64 17.8 38 3.3 38 38 VRB 6 9 29.88 1012 10 16 0.00 0.00
10:53 am 10:53 Sunny 68 20 33 0.6 27 27 N 10 17 29.88 1012 10 16 0.00 0.00
11:53 am 11:53 Sunny 69 20.6 29 -1.7 22 22 NNE 10 17 29.89 1012 10 16 0.00 0.00
12:53 pm 12:53 Sunny 71 21.7 30 -1.1 22 22 NNW 8 13 29.88 1012 10 16 0.00 0.00
1:53 pm 13:53 Sunny 72 22.2 25 -3.9 17 17 N 15 24 29.87 1012 10 16 0.00 0.00
2:53 pm 14:53 Sunny 73 22.8 10 -12.2 9 9 N 18 30 29.86 1011 10 16 0.00 0.00
3:53 pm 15:53 Sunny 73 22.8 14 -10 10 10 N 15 24 29.85 1011 10 16 0.00 0.00
4:53 pm 16:53 Sunny 74 23.3 14 -10 10 10 N 12 19 29.85 1011 10 16 0.00 0.00
5:53 pm 17:53 Sunny 73 22.8 13 -10.6 10 10 NNE 15 24 29.84 1011 10 16 0.00 0.00
6:53 pm 18:53 Sunny 70 21.1 13 -10.6 11 11 N 9 15 29.85 1011 10 16 0.00 0.00
7:53 pm 19:53 Clear 66 18.9 13 -10.6 13 13 NNW 5 7 29.86 1011 10 16 0.00 0.00
8:53 pm 20:53 Clear 63 17.2 9 -12.8 12 12 N 10 17 29.87 1012 10 16 0.00 0.00
9:53 pm 21:53 Clear 61 16.1 13 -10.6 15 15 N 7 11 29.89 1012 10 16 0.00 0.00
10:53 pm 22:53 Clear 60 15.6 13 -10.6 16 16 NNW 8 13 29.90 1012 10 16 0.00 0.00
11:53 pm 23:53 Clear 58 14.4 14 -10 18 18 NNW 8 13 29.91 1013 10 16 0.00 0.00

Powered by AerisWeather